START_TIME,STEP,MOV.,H8,t_acc.,H43,t_acc.,M25,t_acc.,H9,t_acc.
1979-08-05 15:00:28.090 ,1,0,0.,12.0,0.,12.0,0.,12.0,0.,12.0
1979-08-05 15:00:40.090 ,1,0,1.,12.0,0.,12.0,0.,12.0,0.,12.0
1979-08-05 15:00:52.090 ,2,0,0.,12.0,0.,12.0,0.,12.0,0.,12.0
1979-08-05 15:01:04.090 ,2,0,0.,12.0,0.,12.0,0.,12.0,0.,12.0
1979-08-05 15:01:16.090 ,2,0,0.,12.0,0.,12.0,0.,12.0,0.,12.0
1979-08-05 15:01:28.090 ,2,0,0.,12.0,0.,12.0,0.,12.0,0.,12.0
1979-08-05 15:01:40.080 ,3,0,0.,12.0,0.,12.0,0.,12.0,0.,12.0
1979-08-05 15:01:52.090 ,3,0,0.,12.0,0.,12.0,0.,12.0,0.,12.0
1979-08-05 15:02:04.080 ,3,0,0.,12.0,0.,12.0,0.,12.0,0.,12.0
1979-08-05 15:02:16.090 ,3,0,0.,12.0,0.,12.0,0.,12.0,0.,12.0
1979-08-05 15:02:28.090 ,4,0,0.,12.0,0.,12.0,0.,12.0,0.,12.0
1979-08-05 15:02:40.090 ,4,0,0.,12.0,0.,12.0,0.,12.0,0.,12.0
1979-08-05 15:02:52.090 ,4,0,0.,12.0,0.,12.0,0.,12.0,0.,12.0
1979-08-05 15:03:04.090 ,4,0,0.,12.0,0.,12.0,0.,12.0,0.,12.0
1979-08-05 15:03:16.090 ,5,0,0.,12.0,0.,12.0,0.,12.0,0.,12.0
1979-08-05 15:03:28.090 ,5,0,0.,12.0,0.,12.0,0.,12.0,0.,12.0
1979-08-05 15:03:40.090 ,5,0,0.,12.0,0.,12.0,0.,12.0,0.,12.0
1979-08-05 15:03:52.090 ,5,0,0.,12.0,0.,12.0,0.,12.0,0.,12.0
1979-08-05 15:04:04.090 ,6,0,0.,12.0,0.,12.0,0.,12.0,0.,12.0
1979-08-05 15:04:16.090 ,6,0,0.,12.0,0.,12.0,0.,12.0,0.,12.0
1979-08-05 15:04:28.080 ,6,0,0.,12.0,0.,12.0,0.,12.0,0.,12.0
1979-08-05 15:04:40.080 ,6,0,0.,12.0,0.,12.0,0.,12.0,0.,12.0
1979-08-05 15:04:52.080 ,7,0,0.,12.0,0.,12.0,0.,12.0,0.,12.0
1979-08-05 15:05:04.080 ,7,0,0.,12.0,0.,12.0,0.,12.0,0.,12.0
1979-08-05 15:05:16.080 ,7,0,0.,12.0,0.,12.0,0.,12.0,0.,12.0
1979-08-05 15:05:28.080 ,7,0,0.,12.0,0.,12.0,0.,12.0,0.,12.0
1979-08-05 15:05:40.080 ,7,0,0.,12.0,0.,12.0,0.,12.0,0.,12.0
1979-08-05 15:05:52.080 ,7,0,0.,12.0,0.,12.0,0.,12.0,0.,12.0
1979-08-05 15:06:04.080 ,7,0,0.,12.0,0.,12.0,0.,12.0,0.,12.0
1979-08-05 15:06:16.080 ,7,0,0.,12.0,0.,12.0,0.,12.0,0.,12.0
1979-08-05 15:06:28.080 ,6,0,0.,12.0,0.,12.0,0.,12.0,0.,12.0
1979-08-05 15:06:40.080 ,6,0,0.,12.0,0.,12.0,0.,12.0,0.,12.0
1979-08-05 15:06:52.080 ,6,0,0.,12.0,0.,12.0,0.,12.0,0.,12.0
1979-08-05 15:07:04.080 ,6,0,0.,12.0,0.,12.0,0.,12.0,0.,12.0
1979-08-05 15:07:16.080 ,5,0,0.,12.0,0.,12.0,0.,12.0,0.,12.0
1979-08-05 15:07:28.080 ,5,0,0.,12.0,0.,12.0,0.,12.0,0.,12.0
1979-08-05 15:07:40.080 ,5,0,0.,12.0,0.,12.0,0.,12.0,0.,12.0
1979-08-05 15:07:52.080 ,5,0,0.,12.0,0.,12.0,0.,12.0,0.,12.0
1979-08-05 15:08:04.080 ,4,0,0.,12.0,0.,12.0,0.,12.0,0.,12.0
1979-08-05 15:08:16.080 ,4,0,0.,12.0,0.,12.0,0.,12.0,0.,12.0
1979-08-05 15:08:28.080 ,0,0,0.,12.0,0.,12.0,0.,12.0,0.,12.0
1979-08-05 15:08:40.090 ,0,0,,0,,0,,0,,0
1979-08-05 15:08:52.090 ,3,0,0.,12.0,0.,12.0,0.,12.0,0.,12.0
1979-08-05 15:09:04.090 ,3,0,0.,12.0,0.,12.0,0.,12.0,0.,12.0
1979-08-05 15:09:16.090 ,3,0,0.,12.0,0.,12.0,0.,12.0,0.,12.0
1979-08-05 15:09:28.090 ,3,0,0.,12.0,0.,12.0,0.,12.0,0.,12.0
1979-08-05 15:09:40.090 ,2,0,0.,12.0,0.,12.0,0.,12.0,0.,12.0
1979-08-05 15:09:52.090 ,2,0,0.,12.0,0.,12.0,0.,12.0,0.,12.0
1979-08-05 15:10:04.090 ,2,0,0.,12.0,0.,12.0,0.,12.0,0.,12.0
1979-08-05 15:10:16.090 ,2,0,0.,12.0,0.,12.0,0.,12.0,0.,12.0
1979-08-05 15:10:28.090 ,1,0,0.,12.0,0.,12.0,0.,12.0,0.,12.0
1979-08-05 15:10:40.090 ,1,0,0.,12.0,0.,12.0,0.,12.0,0.,12.0
1979-08-05 15:10:52.090 ,1,0,0.,12.0,0.,12.0,0.,12.0,0.,12.0
1979-08-05 15:11:04.090 ,1,0,0.,12.0,0.,12.0,0.,12.0,0.,12.0
1979-08-05 15:11:16.090 ,0,0,0.,12.0,0.,12.0,0.,12.0,0.,12.0
1979-08-05 15:11:28.090 ,0,0,0.,12.0,0.,12.0,0.,12.0,0.,12.0
1979-08-05 15:11:40.090 ,0,0,0.,12.0,0.,12.0,0.,12.0,0.,12.0
1979-08-05 15:11:52.090 ,0,0,0.,12.0,0.,12.0,0.,12.0,0.,12.0
1979-08-05 15:12:04.090 ,0,0,0.,12.0,0.,12.0,0.,12.0,0.,12.0
1979-08-05 15:12:16.090 ,0,0,0.,12.0,0.,12.0,0.,12.0,0.,12.0
1979-08-05 15:12:28.090 ,0,0,0.,12.0,0.,12.0,0.,12.0,0.,12.0
1979-08-05 15:12:40.090 ,0,0,0.,12.0,0.,12.0,0.,12.0,0.,12.0
1979-08-05 15:12:52.090 ,1,0,0.,12.0,0.,12.0,0.,12.0,0.,12.0
1979-08-05 15:13:04.090 ,1,0,0.,12.0,0.,12.0,0.,12.0,0.,12.0
1979-08-05 15:13:16.090 ,1,0,0.,12.0,0.,12.0,0.,12.0,0.,12.0
1979-08-05 15:13:28.090 ,1,0,0.,12.0,0.,12.0,0.,12.0,0.,12.0
1979-08-05 15:13:40.090 ,2,0,0.,12.0,0.,12.0,0.,12.0,0.,12.0
1979-08-05 15:13:52.090 ,2,0,0.,12.0,0.,12.0,0.,12.0,0.,12.0
1979-08-05 15:14:04.090 ,2,0,0.,12.0,0.,12.0,0.,12.0,0.,12.0
1979-08-05 15:14:16.090 ,2,0,0.,12.0,0.,12.0,0.,12.0,0.,12.0
1979-08-05 15:14:28.090 ,3,0,0.,12.0,0.,12.0,0.,12.0,0.,12.0
1979-08-05 15:14:40.090 ,3,0,0.,12.0,0.,12.0,0.,12.0,0.,12.0
1979-08-05 15:14:52.090 ,3,0,0.,12.0,0.,12.0,0.,12.0,0.,12.0
1979-08-05 15:15:04.090 ,3,0,0.,12.0,0.,12.0,0.,12.0,0.,12.0
1979-08-05 15:15:16.090 ,4,0,0.,12.0,0.,12.0,0.,12.0,0.,12.0
1979-08-05 15:15:28.090 ,4,0,0.,12.0,0.,12.0,0.,12.0,0.,12.0
1979-08-05 15:15:40.090 ,4,0,0.,12.0,0.,12.0,0.,12.0,0.,12.0
1979-08-05 15:15:52.090 ,4,0,0.,12.0,0.,12.0,0.,12.0,0.,12.0
1979-08-05 15:16:04.090 ,5,0,0.,12.0,0.,12.0,0.,12.0,0.,12.0
1979-08-05 15:16:16.090 ,5,0,0.,12.0,0.,12.0,0.,12.0,0.,12.0
1979-08-05 15:16:28.090 ,5,0,0.,12.0,0.,12.0,0.,12.0,0.,12.0
1979-08-05 15:16:40.090 ,5,0,0.,12.0,0.,12.0,0.,12.0,0.,12.0
1979-08-05 15:16:52.090 ,6,0,0.,12.0,0.,12.0,0.,12.0,0.,12.0
1979-08-05 15:17:04.090 ,6,0,0.,12.0,0.,12.0,0.,12.0,0.,12.0
1979-08-05 15:17:16.080 ,6,0,0.,12.0,0.,12.0,0.,12.0,0.,12.0
1979-08-05 15:17:28.080 ,6,0,0.,12.0,0.,12.0,0.,12.0,0.,12.0
1979-08-05 15:17:40.080 ,7,0,0.,12.0,0.,12.0,0.,12.0,0.,12.0
1979-08-05 15:17:52.080 ,7,0,0.,12.0,0.,12.0,0.,12.0,0.,12.0
1979-08-05 15:18:04.080 ,7,0,0.,12.0,0.,12.0,0.,12.0,0.,12.0
1979-08-05 15:18:16.080 ,7,0,0.,12.0,0.,12.0,0.,12.0,0.,12.0
1979-08-05 15:18:28.080 ,7,0,0.,12.0,0.,12.0,0.,12.0,0.,12.0
1979-08-05 15:18:40.080 ,7,0,0.,12.0,0.,12.0,0.,12.0,0.,12.0
1979-08-05 15:18:52.080 ,7,0,0.,12.0,0.,12.0,0.,12.0,0.,12.0
1979-08-05 15:19:04.080 ,7,0,0.,12.0,0.,12.0,0.,12.0,0.,12.0
1979-08-05 15:19:16.080 ,6,0,0.,12.0,0.,12.0,0.,12.0,0.,12.0
1979-08-05 15:19:28.080 ,6,0,0.,12.0,0.,12.0,0.,12.0,0.,12.0
1979-08-05 15:19:40.080 ,6,0,0.,12.0,0.,12.0,0.,12.0,0.,12.0
1979-08-05 15:19:52.080 ,6,0,0.,12.0,0.,12.0,0.,12.0,0.,12.0
1979-08-05 15:20:04.080 ,5,0,0.,12.0,0.,12.0,0.,12.0,0.,12.0
1979-08-05 15:20:16.080 ,5,0,0.,12.0,0.,12.0,0.,12.0,0.,12.0
1979-08-05 15:20:28.080 ,5,0,0.,12.0,0.,12.0,0.,12.0,0.,12.0
1979-08-05 15:20:40.080 ,5,0,0.,12.0,0.,12.0,0.,12.0,0.,12.0
1979-08-05 15:20:52.080 ,4,0,0.,12.0,0.,12.0,0.,12.0,0.,12.0
1979-08-05 15:21:04.080 ,4,0,0.,12.0,0.,12.0,0.,12.0,0.,12.0
1979-08-05 15:21:16.080 ,4,0,0.,12.0,0.,12.0,0.,12.0,0.,12.0
1979-08-05 15:21:28.080 ,4,0,0.,12.0,0.,12.0,0.,12.0,0.,12.0
1979-08-05 15:21:40.080 ,3,0,0.,12.0,0.,12.0,0.,12.0,0.,12.0
1979-08-05 15:21:52.080 ,3,0,0.,12.0,0.,12.0,0.,12.0,0.,12.0
1979-08-05 15:22:04.080 ,3,0,0.,12.0,0.,12.0,0.,12.0,0.,12.0
1979-08-05 15:22:16.080 ,3,0,0.,12.0,0.,12.0,0.,12.0,0.,12.0
1979-08-05 15:22:28.080 ,2,0,0.,12.0,0.,12.0,0.,12.0,0.,12.0
1979-08-05 15:22:40.080 ,2,0,0.,12.0,0.,12.0,0.,12.0,0.,12.0
1979-08-05 15:22:52.080 ,2,0,0.,12.0,0.,12.0,0.,12.0,0.,12.0
1979-08-05 15:23:04.080 ,2,0,0.,12.0,0.,12.0,0.,12.0,0.,12.0
1979-08-05 15:23:16.080 ,1,0,0.,12.0,0.,12.0,0.,12.0,0.,12.0
1979-08-05 15:23:28.080 ,1,0,0.,12.0,0.,12.0,0.,12.0,0.,12.0
1979-08-05 15:23:40.080 ,1,0,0.,12.0,0.,12.0,0.,12.0,0.,12.0
1979-08-05 15:23:52.080 ,1,0,0.,12.0,0.,12.0,0.,12.0,0.,12.0
1979-08-05 15:24:04.080 ,0,0,0.,12.0,0.,12.0,0.,12.0,0.,12.0
1979-08-05 15:24:16.080 ,0,0,0.,12.0,0.,12.0,0.,12.0,0.,12.0
1979-08-05 15:24:28.080 ,0,0,0.,12.0,0.,12.0,0.,12.0,0.,12.0
1979-08-05 15:24:40.080 ,0,0,0.,12.0,0.,12.0,0.,12.0,0.,12.0
1979-08-05 15:24:52.080 ,0,0,0.,12.0,0.,12.0,0.,12.0,0.,12.0
1979-08-05 15:25:04.080 ,0,0,0.,12.0,0.,12.0,0.,12.0,0.,12.0
1979-08-05 15:25:16.080 ,0,0,0.,12.0,0.,12.0,0.,12.0,0.,12.0
1979-08-05 15:25:28.080 ,0,0,0.,12.0,0.,12.0,0.,12.0,0.,12.0
1979-08-05 15:25:40.080 ,1,0,0.,12.0,0.,12.0,0.,12.0,0.,12.0
1979-08-05 15:25:52.080 ,1,0,0.,12.0,0.,12.0,0.,12.0,0.,12.0
1979-08-05 15:26:04.080 ,1,0,0.,12.0,0.,12.0,0.,12.0,0.,12.0
1979-08-05 15:26:16.080 ,1,0,0.,12.0,0.,12.0,0.,12.0,0.,12.0
1979-08-05 15:26:28.080 ,2,0,0.,12.0,0.,12.0,0.,12.0,0.,12.0
1979-08-05 15:26:40.080 ,2,0,0.,12.0,0.,12.0,0.,12.0,0.,12.0
1979-08-05 15:26:52.080 ,2,0,0.,12.0,0.,12.0,0.,12.0,0.,12.0
1979-08-05 15:27:04.080 ,2,0,0.,12.0,0.,12.0,0.,12.0,0.,12.0
1979-08-05 15:27:16.080 ,3,0,0.,12.0,0.,12.0,0.,12.0,0.,12.0
1979-08-05 15:27:28.080 ,3,0,0.,12.0,0.,12.0,0.,12.0,0.,12.0
1979-08-05 15:27:40.080 ,3,0,0.,12.0,0.,12.0,0.,12.0,0.,12.0
1979-08-05 15:27:52.080 ,3,0,1.,12.0,0.,12.0,0.,12.0,0.,12.0
1979-08-05 15:28:04.080 ,4,0,0.,12.0,0.,12.0,0.,12.0,0.,12.0
1979-08-05 15:28:16.080 ,4,0,0.,12.0,0.,12.0,0.,12.0,0.,12.0
1979-08-05 15:28:28.080 ,4,0,0.,12.0,0.,12.0,0.,12.0,0.,12.0
1979-08-05 15:28:40.080 ,4,0,0.,12.0,0.,12.0,0.,12.0,0.,12.0
1979-08-05 15:28:52.080 ,5,0,0.,12.0,0.,12.0,0.,12.0,0.,12.0
1979-08-05 15:29:04.080 ,5,0,0.,12.0,0.,12.0,0.,12.0,0.,12.0
1979-08-05 15:29:16.080 ,5,0,0.,12.0,0.,12.0,0.,12.0,0.,12.0
1979-08-05 15:29:28.080 ,5,0,0.,12.0,0.,12.0,0.,12.0,0.,12.0
1979-08-05 15:29:40.080 ,6,0,0.,12.0,0.,12.0,0.,12.0,0.,12.0
1979-08-05 15:29:52.080 ,6,0,0.,12.0,0.,12.0,0.,12.0,0.,12.0
1979-08-05 15:30:04.080 ,6,0,0.,12.0,0.,12.0,0.,12.0,0.,12.0
1979-08-05 15:30:16.080 ,6,0,0.,12.0,0.,12.0,0.,12.0,0.,12.0
1979-08-05 15:30:28.080 ,7,0,0.,12.0,0.,12.0,0.,12.0,0.,12.0
1979-08-05 15:30:40.080 ,7,0,0.,12.0,0.,12.0,0.,12.0,0.,12.0
1979-08-05 15:30:52.080 ,7,0,0.,12.0,0.,12.0,0.,12.0,0.,12.0
1979-08-05 15:31:04.080 ,7,0,0.,12.0,0.,12.0,0.,12.0,0.,12.0
1979-08-05 15:31:16.080 ,3,1,0.,12.0,0.,12.0,0.,12.0,0.,12.0
1979-08-05 15:31:28.080 ,3,1,0.,12.0,0.,12.0,0.,12.0,0.,12.0
1979-08-05 15:31:40.080 ,0,1,0.,12.0,0.,12.0,0.,12.0,0.,12.0
1979-08-05 15:31:52.080 ,0,1,0.,12.0,0.,12.0,0.,12.0,0.,12.0
1979-08-05 15:32:04.080 ,4,1,0.,12.0,0.,12.0,0.,12.0,0.,12.0
1979-08-05 15:32:16.080 ,4,1,0.,12.0,0.,12.0,0.,12.0,0.,12.0
1979-08-05 15:32:28.080 ,7,1,0.,12.0,0.,12.0,0.,12.0,0.,12.0
1979-08-05 15:32:40.080 ,7,1,0.,12.0,0.,12.0,0.,12.0,0.,12.0
1979-08-05 15:32:52.080 ,3,1,0.,12.0,0.,12.0,0.,12.0,0.,12.0
1979-08-05 15:33:04.080 ,3,1,0.,12.0,0.,12.0,0.,12.0,0.,12.0
1979-08-05 15:33:16.080 ,0,1,0.,12.0,0.,12.0,0.,12.0,0.,12.0
1979-08-05 15:33:28.080 ,0,1,0.,12.0,0.,12.0,0.,12.0,0.,12.0
1979-08-05 15:33:40.080 ,4,1,0.,12.0,0.,12.0,0.,12.0,0.,12.0
1979-08-05 15:33:52.080 ,4,1,0.,12.0,0.,12.0,0.,12.0,0.,12.0
1979-08-05 15:34:04.080 ,7,1,0.,12.0,0.,12.0,0.,12.0,0.,12.0
1979-08-05 15:34:16.080 ,7,1,0.,12.0,0.,12.0,0.,12.0,0.,12.0
1979-08-05 15:34:28.080 ,3,1,0.,12.0,0.,12.0,0.,12.0,0.,12.0
1979-08-05 15:34:40.080 ,3,1,0.,12.0,0.,12.0,0.,12.0,0.,12.0
1979-08-05 15:34:52.080 ,0,1,0.,12.0,0.,12.0,0.,12.0,0.,12.0
1979-08-05 15:35:04.080 ,0,1,0.,12.0,0.,12.0,0.,12.0,0.,12.0
1979-08-05 15:35:16.080 ,4,1,0.,12.0,0.,12.0,0.,12.0,0.,12.0
1979-08-05 15:35:28.080 ,4,1,0.,12.0,0.,12.0,0.,12.0,0.,12.0
1979-08-05 15:35:40.080 ,7,1,0.,12.0,0.,12.0,0.,12.0,0.,12.0
1979-08-05 15:35:52.080 ,7,1,0.,12.0,0.,12.0,0.,12.0,0.,12.0
1979-08-05 15:36:04.080 ,3,1,0.,12.0,0.,12.0,0.,12.0,0.,12.0
1979-08-05 15:36:16.080 ,3,1,1.,12.0,0.,12.0,0.,12.0,0.,12.0
1979-08-05 15:36:28.080 ,0,1,0.,12.0,0.,12.0,0.,12.0,0.,12.0
1979-08-05 15:36:40.080 ,0,1,0.,12.0,0.,12.0,0.,12.0,0.,12.0
1979-08-05 15:36:52.080 ,4,1,0.,12.0,0.,12.0,0.,12.0,0.,12.0
1979-08-05 15:37:04.080 ,4,1,0.,12.0,0.,12.0,0.,12.0,0.,12.0
1979-08-05 15:37:16.080 ,7,1,0.,12.0,0.,12.0,0.,12.0,0.,12.0
1979-08-05 15:37:28.080 ,7,1,0.,12.0,0.,12.0,0.,12.0,0.,12.0
1979-08-05 15:37:40.080 ,3,1,0.,12.0,0.,12.0,0.,12.0,0.,12.0
1979-08-05 15:37:52.080 ,3,1,0.,12.0,0.,12.0,0.,12.0,0.,12.0
1979-08-05 15:38:04.080 ,0,1,0.,12.0,0.,12.0,0.,12.0,0.,12.0
1979-08-05 15:38:16.080 ,0,1,0.,12.0,0.,12.0,0.,12.0,0.,12.0
1979-08-05 15:38:28.080 ,4,1,0.,12.0,0.,12.0,0.,12.0,0.,12.0
1979-08-05 15:38:40.080 ,4,1,0.,12.0,0.,12.0,0.,12.0,0.,12.0
1979-08-05 15:38:52.080 ,7,1,0.,12.0,0.,12.0,0.,12.0,0.,12.0
1979-08-05 15:39:04.080 ,7,1,0.,12.0,0.,12.0,0.,12.0,0.,12.0
1979-08-05 15:39:16.080 ,3,1,0.,12.0,0.,12.0,0.,12.0,0.,12.0
1979-08-05 15:39:28.080 ,3,1,0.,12.0,0.,12.0,0.,12.0,0.,12.0
1979-08-05 15:39:40.080 ,0,1,0.,12.0,0.,12.0,0.,12.0,0.,12.0
1979-08-05 15:39:52.080 ,0,1,0.,12.0,0.,12.0,0.,12.0,0.,12.0
1979-08-05 15:40:04.080 ,4,1,0.,12.0,0.,12.0,0.,12.0,0.,12.0
1979-08-05 15:40:16.080 ,4,1,0.,12.0,0.,12.0,0.,12.0,0.,12.0
1979-08-05 15:40:28.080 ,0,0,0.,12.0,0.,12.0,0.,12.0,0.,12.0
1979-08-05 15:40:40.080 ,0,0,0.,12.0,0.,12.0,0.,12.0,0.,12.0
1979-08-05 15:40:58.680 ,0,0,0.,12.0,0.,12.0,0.,12.0,0.,12.0
1979-08-05 15:41:10.680 ,0,0,,0,,0,,0,,0
1979-08-05 15:41:16.080 ,0,1,0.,12.0,0.,12.0,0.,12.0,0.,12.0
1979-08-05 15:41:28.080 ,0,1,0.,12.0,0.,12.0,0.,12.0,0.,12.0
1979-08-05 15:41:40.080 ,0,0,0.,12.0,0.,12.0,0.,12.0,0.,12.0
1979-08-05 15:41:52.080 ,0,0,0.,12.0,0.,12.0,0.,12.0,0.,12.0
1979-08-05 15:42:04.080 ,0,0,0.,12.0,0.,12.0,0.,12.0,0.,12.0
1979-08-05 15:42:16.080 ,0,0,0.,12.0,0.,12.0,0.,12.0,0.,12.0
1979-08-05 15:42:28.080 ,5,0,,0,,0,,0,,0
1979-08-05 15:42:40.080 ,5,0,0.,12.0,0.,12.0,0.,12.0,0.,12.0
1979-08-05 15:42:52.080 ,5,0,0.,12.0,0.,12.0,0.,12.0,0.,12.0
1979-08-05 15:43:04.080 ,5,0,0.,12.0,0.,12.0,0.,12.0,0.,12.0
1979-08-05 15:43:16.080 ,4,0,0.,12.0,0.,12.0,0.,12.0,0.,12.0
1979-08-05 15:43:28.080 ,4,0,0.,12.0,0.,12.0,0.,12.0,0.,12.0
1979-08-05 15:43:40.080 ,4,0,0.,12.0,0.,12.0,0.,12.0,0.,12.0
1979-08-05 15:43:52.080 ,4,0,0.,12.0,0.,12.0,0.,12.0,0.,12.0
1979-08-05 15:44:04.080 ,3,0,0.,12.0,0.,12.0,0.,12.0,0.,12.0
1979-08-05 15:44:16.080 ,3,0,0.,12.0,0.,12.0,0.,12.0,0.,12.0
1979-08-05 15:44:28.080 ,3,0,0.,12.0,0.,12.0,0.,12.0,0.,12.0
1979-08-05 15:44:40.080 ,3,0,0.,12.0,0.,12.0,0.,12.0,0.,12.0
1979-08-05 15:44:52.080 ,2,0,0.,12.0,0.,12.0,0.,12.0,0.,12.0
1979-08-05 15:45:04.080 ,2,0,0.,12.0,0.,12.0,0.,12.0,0.,12.0
1979-08-05 15:45:16.080 ,2,0,0.,12.0,0.,12.0,0.,12.0,0.,12.0
1979-08-05 15:45:28.080 ,2,0,1.,12.0,0.,12.0,0.,12.0,0.,12.0
1979-08-05 15:45:40.080 ,1,0,0.,12.0,0.,12.0,0.,12.0,0.,12.0
1979-08-05 15:45:52.080 ,1,0,0.,12.0,0.,12.0,0.,12.0,0.,12.0
1979-08-05 15:46:04.080 ,1,0,0.,12.0,0.,12.0,0.,12.0,0.,12.0
1979-08-05 15:46:16.080 ,1,0,0.,12.0,0.,12.0,0.,12.0,0.,12.0
1979-08-05 15:46:28.080 ,0,0,0.,12.0,0.,12.0,0.,12.0,0.,12.0
1979-08-05 15:46:40.080 ,0,0,0.,12.0,0.,12.0,0.,12.0,0.,12.0
1979-08-05 15:46:52.080 ,0,0,0.,12.0,0.,12.0,0.,12.0,0.,12.0
1979-08-05 15:47:04.080 ,0,0,0.,12.0,0.,12.0,0.,12.0,0.,12.0
1979-08-05 15:47:16.080 ,0,0,0.,12.0,0.,12.0,0.,12.0,0.,12.0
1979-08-05 15:47:28.080 ,0,0,0.,12.0,0.,12.0,0.,12.0,0.,12.0
1979-08-05 15:47:40.080 ,0,0,0.,12.0,0.,12.0,0.,12.0,0.,12.0
1979-08-05 15:47:52.080 ,0,0,0.,12.0,0.,12.0,0.,12.0,0.,12.0
1979-08-05 15:48:04.080 ,1,0,0.,12.0,0.,12.0,0.,12.0,0.,12.0
1979-08-05 15:48:16.080 ,1,0,0.,12.0,0.,12.0,0.,12.0,0.,12.0
1979-08-05 15:48:28.080 ,1,0,0.,12.0,0.,12.0,0.,12.0,0.,12.0
1979-08-05 15:48:40.080 ,1,0,0.,12.0,0.,12.0,0.,12.0,0.,12.0
1979-08-05 15:48:52.080 ,2,0,0.,12.0,0.,12.0,0.,12.0,0.,12.0
1979-08-05 15:49:04.080 ,2,0,0.,12.0,0.,12.0,0.,12.0,0.,12.0
1979-08-05 15:49:16.080 ,2,0,0.,12.0,0.,12.0,0.,12.0,0.,12.0
1979-08-05 15:49:28.080 ,2,0,0.,12.0,0.,12.0,0.,12.0,0.,12.0
1979-08-05 15:49:40.080 ,3,0,0.,12.0,0.,12.0,0.,12.0,0.,12.0
1979-08-05 15:49:52.080 ,3,0,0.,12.0,0.,12.0,0.,12.0,0.,12.0
1979-08-05 15:50:04.080 ,3,0,0.,12.0,0.,12.0,0.,12.0,0.,12.0
1979-08-05 15:50:16.080 ,3,0,0.,12.0,0.,12.0,0.,12.0,0.,12.0
1979-08-05 15:50:28.080 ,0,0,0.,12.0,0.,12.0,0.,12.0,0.,12.0
1979-08-05 15:50:40.080 ,0,0,0.,12.0,0.,12.0,0.,12.0,0.,12.0
1979-08-05 15:50:52.080 ,0,0,,0,,0,,0,,0
1979-08-05 15:51:04.080 ,0,0,0.,12.0,0.,12.0,0.,12.0,0.,12.0
1979-08-05 15:51:16.080 ,5,0,0.,12.0,0.,12.0,0.,12.0,0.,12.0
1979-08-05 15:51:28.080 ,5,0,0.,12.0,0.,12.0,0.,12.0,0.,12.0
1979-08-05 15:51:40.080 ,5,0,0.,12.0,0.,12.0,0.,12.0,0.,12.0
1979-08-05 15:51:52.080 ,5,0,0.,12.0,0.,12.0,0.,12.0,0.,12.0
1979-08-05 15:52:04.080 ,6,0,0.,12.0,0.,12.0,0.,12.0,0.,12.0
1979-08-05 15:52:16.080 ,6,0,0.,12.0,0.,12.0,0.,12.0,0.,12.0
1979-08-05 15:52:28.080 ,6,0,0.,12.0,0.,12.0,0.,12.0,0.,12.0
1979-08-05 15:52:40.080 ,6,0,0.,12.0,0.,12.0,0.,12.0,0.,12.0
1979-08-05 15:52:52.080 ,7,0,0.,12.0,0.,12.0,0.,12.0,0.,12.0
1979-08-05 15:53:04.080 ,7,0,0.,12.0,0.,12.0,0.,12.0,0.,12.0
1979-08-05 15:53:16.080 ,7,0,0.,12.0,0.,12.0,0.,12.0,0.,12.0
1979-08-05 15:53:28.080 ,7,0,0.,12.0,0.,12.0,0.,12.0,0.,12.0
1979-08-05 15:53:40.080 ,7,0,0.,12.0,0.,12.0,0.,12.0,0.,12.0
1979-08-05 15:53:52.080 ,7,0,0.,12.0,0.,12.0,0.,12.0,0.,12.0
1979-08-05 15:54:04.080 ,7,0,0.,12.0,0.,12.0,0.,12.0,0.,12.0
1979-08-05 15:54:16.080 ,7,0,0.,12.0,0.,12.0,0.,12.0,0.,12.0
1979-08-05 15:54:28.080 ,6,0,0.,12.0,0.,12.0,0.,12.0,0.,12.0
1979-08-05 15:54:40.080 ,6,0,0.,12.0,0.,12.0,0.,12.0,0.,12.0
1979-08-05 15:54:52.080 ,6,0,0.,12.0,0.,12.0,0.,12.0,0.,12.0
1979-08-05 15:55:04.080 ,6,0,0.,12.0,0.,12.0,0.,12.0,0.,12.0
1979-08-05 15:55:16.080 ,5,0,0.,12.0,0.,12.0,0.,12.0,0.,12.0
1979-08-05 15:55:28.080 ,5,0,0.,12.0,0.,12.0,0.,12.0,0.,12.0
1979-08-05 15:55:40.080 ,5,0,0.,12.0,0.,12.0,0.,12.0,0.,12.0
1979-08-05 15:55:52.080 ,5,0,0.,12.0,0.,12.0,0.,12.0,0.,12.0
1979-08-05 15:56:04.080 ,4,0,0.,12.0,0.,12.0,0.,12.0,0.,12.0
1979-08-05 15:56:16.080 ,4,0,0.,12.0,0.,12.0,0.,12.0,0.,12.0
1979-08-05 15:56:28.080 ,4,0,0.,12.0,0.,12.0,0.,12.0,0.,12.0
1979-08-05 15:56:40.080 ,4,0,0.,12.0,0.,12.0,0.,12.0,0.,12.0
1979-08-05 15:56:52.080 ,3,0,0.,12.0,0.,12.0,0.,12.0,0.,12.0
1979-08-05 15:57:04.080 ,3,0,0.,12.0,0.,12.0,0.,12.0,0.,12.0
1979-08-05 15:57:16.080 ,3,0,0.,12.0,0.,12.0,0.,12.0,0.,12.0
1979-08-05 15:57:28.080 ,3,0,0.,12.0,0.,12.0,0.,12.0,0.,12.0
1979-08-05 15:57:40.080 ,2,0,0.,12.0,0.,12.0,0.,12.0,0.,12.0
1979-08-05 15:57:52.080 ,2,0,0.,12.0,0.,12.0,0.,12.0,0.,12.0
1979-08-05 15:58:04.080 ,2,0,0.,12.0,0.,12.0,0.,12.0,0.,12.0
1979-08-05 15:58:16.080 ,2,0,0.,12.0,0.,12.0,0.,12.0,0.,12.0
1979-08-05 15:58:28.080 ,1,0,0.,12.0,0.,12.0,0.,12.0,0.,12.0
1979-08-05 15:58:40.080 ,1,0,0.,12.0,0.,12.0,0.,12.0,0.,12.0
1979-08-05 15:58:52.080 ,1,0,0.,12.0,0.,12.0,0.,12.0,0.,12.0
1979-08-05 15:59:04.080 ,1,0,0.,12.0,0.,12.0,0.,12.0,0.,12.0
1979-08-05 15:59:16.080 ,0,0,0.,12.0,0.,12.0,0.,12.0,0.,12.0
1979-08-05 15:59:28.080 ,0,0,0.,12.0,0.,12.0,0.,12.0,0.,12.0
1979-08-05 15:59:40.080 ,0,0,0.,12.0,0.,12.0,0.,12.0,0.,12.0
1979-08-05 15:59:52.080 ,0,0,0.,12.0,0.,12.0,0.,12.0,0.,12.0
1979-08-05 16:00:04.080 ,0,0,0.,12.0,0.,12.0,0.,12.0,0.,12.0
1979-08-05 16:00:16.080 ,0,0,0.,12.0,0.,12.0,0.,12.0,0.,12.0
1979-08-05 16:00:28.080 ,0,0,0.,12.0,0.,12.0,0.,12.0,0.,12.0
1979-08-05 16:00:40.080 ,0,0,0.,12.0,0.,12.0,0.,12.0,0.,12.0
1979-08-05 16:00:52.080 ,1,0,0.,12.0,0.,12.0,0.,12.0,0.,12.0
1979-08-05 16:01:04.080 ,1,0,0.,12.0,0.,12.0,0.,12.0,0.,12.0
1979-08-05 16:01:16.080 ,1,0,0.,12.0,0.,12.0,0.,12.0,0.,12.0
1979-08-05 16:01:28.080 ,1,0,0.,12.0,0.,12.0,0.,12.0,0.,12.0
1979-08-05 16:01:40.080 ,2,0,0.,12.0,0.,12.0,0.,12.0,0.,12.0
1979-08-05 16:01:52.080 ,2,0,0.,12.0,0.,12.0,0.,12.0,0.,12.0
1979-08-05 16:02:04.080 ,2,0,0.,12.0,0.,12.0,0.,12.0,0.,12.0
1979-08-05 16:02:16.080 ,2,0,0.,12.0,0.,12.0,0.,12.0,0.,12.0
1979-08-05 16:02:28.080 ,3,0,0.,12.0,0.,12.0,0.,12.0,1.,12.0
1979-08-05 16:02:40.080 ,3,0,0.,12.0,0.,12.0,0.,12.0,0.,12.0
1979-08-05 16:02:52.080 ,3,0,0.,12.0,0.,12.0,0.,12.0,0.,12.0
1979-08-05 16:03:04.080 ,3,0,0.,12.0,0.,12.0,0.,12.0,0.,12.0
1979-08-05 16:03:16.080 ,4,0,0.,12.0,0.,12.0,0.,12.0,0.,12.0
1979-08-05 16:03:28.080 ,4,0,0.,12.0,0.,12.0,0.,12.0,0.,12.0
1979-08-05 16:03:40.080 ,4,0,0.,12.0,0.,12.0,0.,12.0,0.,12.0
1979-08-05 16:03:52.080 ,4,0,0.,12.0,0.,12.0,0.,12.0,0.,12.0
1979-08-05 16:04:04.080 ,5,0,0.,12.0,0.,12.0,0.,12.0,0.,12.0
1979-08-05 16:04:16.080 ,5,0,0.,12.0,0.,12.0,0.,12.0,0.,12.0
1979-08-05 16:04:28.080 ,5,0,0.,12.0,0.,12.0,0.,12.0,0.,12.0
1979-08-05 16:04:40.080 ,5,0,0.,12.0,0.,12.0,0.,12.0,0.,12.0
1979-08-05 16:04:52.080 ,6,0,0.,12.0,0.,12.0,0.,12.0,0.,12.0
1979-08-05 16:05:04.080 ,6,0,0.,12.0,0.,12.0,0.,12.0,0.,12.0
1979-08-05 16:05:16.080 ,6,0,0.,12.0,0.,12.0,0.,12.0,0.,12.0
1979-08-05 16:05:28.080 ,6,0,0.,12.0,0.,12.0,0.,12.0,0.,12.0
1979-08-05 16:05:40.080 ,7,0,0.,12.0,0.,12.0,0.,12.0,0.,12.0
1979-08-05 16:05:52.080 ,7,0,0.,12.0,0.,12.0,0.,12.0,0.,12.0
1979-08-05 16:06:04.080 ,7,0,0.,12.0,0.,12.0,0.,12.0,0.,12.0
1979-08-05 16:06:16.080 ,7,0,0.,12.0,0.,12.0,0.,12.0,0.,12.0
1979-08-05 16:06:28.080 ,7,0,0.,12.0,0.,12.0,0.,12.0,0.,12.0
1979-08-05 16:06:40.080 ,7,0,0.,12.0,0.,12.0,0.,12.0,0.,12.0
1979-08-05 16:06:52.080 ,7,0,0.,12.0,0.,12.0,0.,12.0,0.,12.0
1979-08-05 16:07:04.080 ,7,0,0.,12.0,0.,12.0,0.,12.0,0.,12.0
1979-08-05 16:07:16.080 ,6,0,0.,12.0,0.,12.0,0.,12.0,0.,12.0
1979-08-05 16:07:28.080 ,6,0,0.,12.0,0.,12.0,0.,12.0,0.,12.0
1979-08-05 16:07:40.080 ,6,0,0.,12.0,0.,12.0,0.,12.0,0.,12.0
1979-08-05 16:07:52.080 ,6,0,0.,12.0,0.,12.0,0.,12.0,0.,12.0
1979-08-05 16:08:04.080 ,5,0,0.,12.0,0.,12.0,0.,12.0,0.,12.0
1979-08-05 16:08:16.080 ,5,0,0.,12.0,0.,12.0,0.,12.0,0.,12.0
1979-08-05 16:08:28.080 ,5,0,0.,12.0,0.,12.0,0.,12.0,0.,12.0
1979-08-05 16:08:40.080 ,5,0,0.,12.0,0.,12.0,0.,12.0,0.,12.0
1979-08-05 16:08:52.080 ,4,0,0.,12.0,0.,12.0,0.,12.0,0.,12.0
1979-08-05 16:09:04.080 ,4,0,0.,12.0,0.,12.0,0.,12.0,0.,12.0
1979-08-05 16:09:16.080 ,4,0,0.,12.0,0.,12.0,0.,12.0,0.,12.0
1979-08-05 16:09:28.080 ,4,0,0.,12.0,0.,12.0,0.,12.0,0.,12.0
1979-08-05 16:09:40.080 ,3,0,0.,12.0,0.,12.0,0.,12.0,0.,12.0
1979-08-05 16:09:52.080 ,3,0,0.,12.0,0.,12.0,0.,12.0,0.,12.0
1979-08-05 16:10:04.080 ,3,0,0.,12.0,0.,12.0,0.,12.0,0.,12.0
1979-08-05 16:10:16.080 ,3,0,0.,12.0,0.,12.0,0.,12.0,0.,12.0
1979-08-05 16:10:28.080 ,2,0,0.,12.0,0.,12.0,0.,12.0,0.,12.0
1979-08-05 16:10:40.080 ,2,0,0.,12.0,0.,12.0,0.,12.0,0.,12.0
1979-08-05 16:10:52.080 ,2,0,0.,12.0,0.,12.0,0.,12.0,0.,12.0
1979-08-05 16:11:04.080 ,2,0,0.,12.0,0.,12.0,0.,12.0,0.,12.0
1979-08-05 16:11:16.080 ,1,0,0.,12.0,0.,12.0,0.,12.0,0.,12.0
1979-08-05 16:11:28.080 ,1,0,0.,12.0,0.,12.0,0.,12.0,0.,12.0
1979-08-05 16:11:40.080 ,1,0,0.,12.0,0.,12.0,0.,12.0,0.,12.0
1979-08-05 16:11:52.080 ,1,0,0.,12.0,0.,12.0,0.,12.0,0.,12.0
1979-08-05 16:12:04.080 ,0,0,0.,12.0,0.,12.0,0.,12.0,0.,12.0
1979-08-05 16:12:16.080 ,0,0,0.,12.0,0.,12.0,0.,12.0,0.,12.0
1979-08-05 16:12:28.080 ,0,0,0.,12.0,0.,12.0,0.,12.0,0.,12.0
1979-08-05 16:12:40.080 ,0,0,0.,12.0,0.,12.0,0.,12.0,0.,12.0
1979-08-05 16:12:52.080 ,0,0,0.,12.0,0.,12.0,0.,12.0,0.,12.0
1979-08-05 16:13:04.080 ,0,0,0.,12.0,0.,12.0,0.,12.0,0.,12.0
1979-08-05 16:13:16.080 ,0,0,0.,12.0,0.,12.0,0.,12.0,0.,12.0
1979-08-05 16:13:28.080 ,0,0,0.,12.0,0.,12.0,0.,12.0,0.,12.0
1979-08-05 16:13:40.080 ,1,0,0.,12.0,0.,12.0,0.,12.0,0.,12.0
1979-08-05 16:13:52.080 ,1,0,0.,12.0,0.,12.0,0.,12.0,0.,12.0
1979-08-05 16:14:04.080 ,1,0,0.,12.0,0.,12.0,0.,12.0,0.,12.0
1979-08-05 16:14:16.080 ,1,0,0.,12.0,0.,12.0,0.,12.0,0.,12.0
1979-08-05 16:14:28.080 ,2,0,0.,12.0,0.,12.0,0.,12.0,0.,12.0
1979-08-05 16:14:40.080 ,2,0,0.,12.0,0.,12.0,0.,12.0,0.,12.0
1979-08-05 16:14:52.080 ,2,0,0.,12.0,0.,12.0,0.,12.0,0.,12.0
1979-08-05 16:15:04.080 ,2,0,0.,12.0,0.,12.0,0.,12.0,0.,12.0
1979-08-05 16:15:16.080 ,3,0,0.,12.0,0.,12.0,0.,12.0,0.,12.0
1979-08-05 16:15:28.080 ,3,0,0.,12.0,0.,12.0,0.,12.0,0.,12.0
1979-08-05 16:15:40.080 ,3,0,0.,12.0,0.,12.0,0.,12.0,0.,12.0
1979-08-05 16:15:52.080 ,3,0,0.,12.0,0.,12.0,0.,12.0,0.,12.0
1979-08-05 16:16:04.080 ,4,0,0.,12.0,0.,12.0,0.,12.0,0.,12.0
1979-08-05 16:16:16.080 ,4,0,0.,12.0,0.,12.0,0.,12.0,0.,12.0
1979-08-05 16:16:28.080 ,4,0,0.,12.0,0.,12.0,0.,12.0,0.,12.0
1979-08-05 16:16:40.080 ,4,0,0.,12.0,0.,12.0,0.,12.0,0.,12.0
1979-08-05 16:16:52.080 ,5,0,0.,12.0,0.,12.0,0.,12.0,0.,12.0
1979-08-05 16:17:04.080 ,5,0,0.,12.0,0.,12.0,0.,12.0,0.,12.0
1979-08-05 16:17:16.080 ,5,0,0.,12.0,0.,12.0,0.,12.0,0.,12.0
1979-08-05 16:17:28.080 ,5,0,0.,12.0,0.,12.0,0.,12.0,0.,12.0
1979-08-05 16:17:40.080 ,6,0,0.,12.0,0.,12.0,0.,12.0,0.,12.0